FW4284 Weather Reports


time (UTC)temp
C
wind
direction
speed
KPH
gust
KPH
rain 1hr
cm
rain 24hr
cm
rain mn
cm
humidity
%
barometer
mb
20260506223024 27 158 4.8 8.0 0.00 0.03 0.03 48 1010.1
20260506222021 27 175 4.8 9.7 0.00 0.03 0.03 47 1010.2
20260506221043 28 175 4.8 8.0 0.00 0.03 0.03 47 1010.5
20260506220019 28 190 4.8 8.0 0.00 0.03 0.03 47 1010.6
20260506215017 28 183 4.8 8.0 0.00 0.03 0.03 47 1010.7
20260506214030 27 143 3.2 8.0 0.00 0.03 0.03 48 1010.9
20260506213027 28 27 4.8 8.0 0.00 0.03 0.03 47 1010.8
20260506212024 27 161 4.8 11.3 0.00 0.03 0.03 48 1010.9
20260506211021 27 303 4.8 9.7 0.00 0.03 0.03 48 1011.0
20260506210022 27 70 4.8 6.4 0.00 0.03 0.03 47 1011.1
20260506205024 26 162 4.8 8.0 0.00 0.03 0.03 48 1011.2
20260506204027 27 179 4.8 11.3 0.00 0.03 0.03 48 1011.1
20260506203042 27 200 4.8 8.0 0.00 0.03 0.03 48 1011.4
20260506202019 27 226 4.8 8.0 0.00 0.03 0.03 47 1011.5
20260506201017 27 215 4.8 8.0 0.00 0.03 0.03 48 1011.5
20260506200018 26 182 4.8 8.0 0.00 0.03 0.03 49 1011.7
20260506195020 26 240 6.4 11.3 0.00 0.03 0.03 49 1011.8
20260506194037 26 107 4.8 8.0 0.00 0.03 0.03 49 1011.8
20260506193031 26 33 4.8 8.0 0.00 0.03 0.03 50 1012.0
20260506192029 26 170 4.8 8.0 0.00 0.03 0.03 50 1012.0
20260506191030 25 84 3.2 4.8 0.00 0.03 0.03 50 1012.1
20260506190026 25 135 4.8 6.4 0.00 0.03 0.03 50 1012.1
20260506185030 24 119 4.8 9.7 0.00 0.03 0.03 51 1012.2
20260506184026 24 186 4.8 9.7 0.00 0.03 0.03 51 1012.3
20260506183023 23 169 6.4 9.7 0.00 0.03 0.03 52 1012.3
20260506182019 23 284 3.2 8.0 0.00 0.03 0.03 53 1012.5
20260506181022 22 148 3.2 4.8 0.00 0.03 0.03 53 1012.6
20260506180023 22 206 4.8 8.0 0.00 0.03 0.03 55 1012.6
20260506175024 22 132 3.2 6.4 0.00 0.03 0.03 55 1012.6
20260506174020 22 162 3.2 6.4 0.00 0.03 0.03 57 1012.7
20260506173039 21 130 3.2 6.4 0.00 0.03 0.03 57 1012.8
20260506172032 21 224 3.2 6.4 0.00 0.03 0.03 58 1012.7
20260506171029 20 120 3.2 6.4 0.00 0.03 0.03 59 1012.6
20260506170026 20 88 3.2 6.4 0.00 0.03 0.03 62 1012.6
20260506165029 19 43 1.6 6.4 0.00 0.03 0.03 63 1012.7
20260506164030 18 84 3.2 4.8 0.00 0.03 0.03 65 1012.7
20260506163047 17 137 3.2 4.8 0.00 0.03 0.03 68 1012.6
20260506162043 16 0.0 0.0 0.00 0.03 0.03 70 1012.6
20260506161045 16 0.0 0.0 0.00 0.03 0.03 72 1012.7
20260506160027 15 0.0 0.0 0.00 0.03 0.03 75 1012.8
20260506155029 14 0.0 0.0 0.00 0.03 0.03 77 1012.8
20260506154053 13 0.0 0.0 0.00 0.03 0.03 78 1012.9
20260506153021 13 0.0 0.0 0.00 0.03 0.03 81 1013.1
20260506152019 12 0.0 0.0 0.00 0.03 0.03 83 1013.1
20260506151020 12 0.0 0.0 0.00 0.03 0.03 86 1013.1
20260506150023 11 0.0 0.0 0.00 0.03 0.03 85 1013.2
20260506145058 11 0.0 0.0 0.00 0.03 0.03 88 1013.2
20260506144021 10 0.0 0.0 0.00 0.03 0.03 89 1013.1
20260506143017 10 0.0 0.0 0.00 0.03 0.03 88 1013.1
20260506142031 10 0.0 0.0 0.00 0.03 0.03 91 1013.1
20260506141016 10 0.0 0.0 0.00 0.03 0.03 92 1012.8
20260506140017 9 0.0 0.0 0.00 0.03 0.03 94 1012.9
20260506135019 8 0.0 0.0 0.00 0.03 0.03 96 1012.9
20260506134017 7 0.0 0.0 0.00 0.03 0.03 97 1012.7
20260506133018 6 0.0 0.0 0.00 0.03 0.03 97 1012.7
20260506132016 6 0.0 0.0 0.00 0.03 0.03 97 1012.7
20260506131038 6 0.0 0.0 0.00 0.03 0.03 97 1012.5
20260506130021 6 0.0 0.0 0.03 0.03 0.03 97 1012.5
20260506125018 6 0.0 0.0 0.03 0.03 0.03 97 1012.4
20260506124017 6 0.0 0.0 0.03 0.03 0.03 97 1012.2
20260506123026 6 0.0 0.0 0.03 0.03 0.03 96 1012.2
20260506122023 6 0.0 0.0 0.03 0.03 0.03 95 1012.1
20260506121019 6 0.0 0.0 0.03 0.03 0.03 96 1012.0
20260506120017 6 0.0 0.0 0.00 0.00 0.00 96 1011.9
20260506115021 7 0.0 0.0 0.00 0.00 0.00 96 1011.9
20260506114034 7 0.0 0.0 0.00 0.00 0.00 96 1012.0
20260506113052 7 0.0 0.0 0.00 0.00 0.00 97 1012.0
20260506112029 7 350 1.6 4.8 0.00 0.00 0.00 97 1012.1
20260506111023 7 44 1.6 4.8 0.00 0.00 0.00 96 1011.8
20260506110020 7 23 0.0 1.6 0.00 0.00 0.00 96 1012.0
20260506105021 7 56 0.0 3.2 0.00 0.00 0.00 95 1012.0
20260506104020 7 0.0 0.0 0.00 0.00 0.00 94 1012.0
20260506103043 7 0.0 0.0 0.00 0.00 0.00 94 1012.2
20260506102035 7 0.0 0.0 0.00 0.00 0.00 93 1012.1
20260506101100 7 0.0 0.0 0.00 0.00 0.00 93 1012.2
20260506100021 7 0.0 1.6 0.00 0.00 0.00 93 1012.1
20260506094024 7 0.0 0.0 0.00 0.00 0.00 93 1012.1
20260506093022 7 0.0 0.0 0.00 0.00 0.00 93 1012.1
20260506092040 7 57 0.0 3.2 0.00 0.00 0.00 93 1012.1
20260506091032 7 13 1.6 3.2 0.00 0.00 0.00 92 1012.3
20260506090028 7 0.0 0.0 0.00 0.00 0.00 90 1012.1
20260506085028 7 0.0 0.0 0.00 0.00 0.00 90 1012.1
20260506084043 8 0.0 0.0 0.00 0.00 0.00 89 1012.3
20260506083025 8 0.0 0.0 0.00 0.00 0.00 90 1012.3
20260506082023 8 0.0 0.0 0.00 0.00 0.00 90 1012.4
20260506081017 8 23 1.6 4.8 0.00 0.00 0.00 88 1012.3
20260506073029 9 0.0 0.0 0.00 0.00 0.00 86 1012.4
20260506072024 10 0.0 0.0 0.00 0.00 0.00 86 1011.8
20260506071025 10 0.0 0.0 0.00 0.00 0.00 86 1011.6
20260506062020 10 0.0 0.0 0.00 0.00 0.00 83 1011.2
20260506061017 10 57 0.0 3.2 0.00 0.00 0.00 82 1011.3
20260506051031 11 17 0.0 4.8 0.00 0.00 0.00 78 1010.7
20260506045025 12 0.0 0.0 0.00 0.00 0.00 78 1010.6
20260506044022 12 191 1.6 3.2 0.00 0.00 0.00 78 1010.5
20260506043016 12 84 0.0 4.8 0.00 0.00 0.00 78 1010.5
20260506042101 12 54 1.6 4.8 0.00 0.00 0.00 78 1010.2
20260506041015 12 135 0.0 3.2 0.00 0.00 0.00 77 1010.1
20260506040051 13 0.0 0.0 0.00 0.00 0.00 76 1010.0
20260506035020 13 0.0 0.0 0.00 0.00 0.00 75 1009.9
20260506034017 13 0.0 0.0 0.00 0.00 0.00 74 1009.8
20260506033019 13 180 0.0 1.6 0.00 0.00 0.00 73 1009.7
20260506032022 14 0.0 0.0 0.00 0.00 0.00 72 1009.4
20260506031028 14 0.0 0.0 0.00 0.00 0.00 71 1009.4
20260506030019 15 248 0.0 3.2 0.00 0.00 0.00 70 1009.2
20260506025018 15 158 0.0 3.2 0.00 0.00 0.00 69 1009.1
20260506024032 16 60 1.6 3.2 0.00 0.00 0.00 68 1008.9
20260506023033 16 160 0.0 3.2 0.00 0.00 0.00 66 1008.8
20260506022030 16 203 0.0 4.8 0.00 0.00 0.00 65 1008.8
20260506021027 16 163 4.8 6.4 0.00 0.00 0.00 65 1008.6
20260506020025 17 204 3.2 6.4 0.00 0.00 0.00 64 1008.5
20260506015028 17 169 1.6 4.8 0.00 0.00 0.00 64 1008.3
20260506014103 17 179 3.2 8.0 0.00 0.00 0.00 64 1008.3
20260506013024 17 295 3.2 8.0 0.00 0.00 0.00 65 1008.3
20260506012028 17 84 4.8 8.0 0.00 0.00 0.00 64 1008.3
20260506011022 17 183 3.2 6.4 0.00 0.00 0.00 64 1008.1
20260506010019 17 89 3.2 6.4 0.00 0.00 0.00 64 1008.1
20260506005017 18 322 4.8 9.7 0.00 0.00 0.00 62 1008.0
20260506004025 18 233 4.8 8.0 0.00 0.00 0.00 61 1007.9
20260506003029 18 173 4.8 6.4 0.00 0.00 0.00 61 1007.8
20260506002046 18 107 4.8 6.4 0.00 0.00 0.00 63 1007.9
20260506001025 18 112 3.2 8.0 0.00 0.00 0.00 61 1007.7
20260506000024 17 103 4.8 6.4 0.00 0.00 0.00 61 1007.7
20260505235042 18 172 4.8 8.0 0.00 0.00 0.00 59 1007.7
20260505234022 18 227 4.8 12.9 0.00 0.00 0.00 59 1007.7
20260505233025 18 302 6.4 11.3 0.00 0.00 0.00 58 1007.9
20260505232027 18 125 1.6 6.4 0.00 0.00 0.00 61 1008.2
20260505231023 17 112 4.8 8.0 0.00 0.00 0.00 61 1007.9
20260505230020 17 218 3.2 6.4 0.00 0.00 0.00 61 1007.9
20260505225022 18 173 4.8 8.0 0.00 0.00 0.00 61 1008.0
20260505224038 17 144 3.2 6.4 0.00 0.00 0.00 62 1008.1